Weather History for Superior, WI

Change the Weather History Date:

Thursday, October 17, 2013

  Actual Average Record
Temperature  
Mean Temperature 39 °F -  
Max Temperature 47 °F 53 °F 85 °F (1961)
Min Temperature 31 °F 35 °F 15 °F (1952)
Degree Days  
Heating Degree Days 26    
Moisture  
Dew Point 39 °F    
Average Humidity 93    
Maximum Humidity 99    
Minimum Humidity 86    
Precipitation  
Precipitation 0.19 in - - ()
Sea Level Pressure  
Sea Level Pressure 29.80 in    
Wind  
Wind Speed 3 mph (WSW)    
Max Wind Speed 10 mph    
Max Gust Speed 16 mph    
Visibility 9 miles    
Events Rain    
Averages and records for this station are not official NWS values.
T = Trace of Precipitation, MM = Missing Value Source: NWS Daily Summary

Daily Weather History Graph

Daily Weather History Graph

Search for Another Location

Airport:

Trip Planner

Search our weather history database for the weather conditions in past years. The results will help you decide how hot, cold, wet, or windy it might be!

Date:

Astronomy

Oct. 17, 2013 Rise Set
Actual Time 7:29 AM CDT 6:17 PM CDT
Civil Twilight 6:58 AM CDT 6:47 PM CDT
Nautical Twilight 6:23 AM CDT 7:22 PM CDT
Astronomical Twilight 5:48 AM CDT 7:57 PM CDT
Moon 5:33 PM CDT (10/17) 5:58 AM CDT (10/17)
Length of Visible Light 11h 49m
Length of Day
10h 48m
Waxing Gibbous, 98% of the Moon is Illuminated
Oct 17
Waxing Gibbous
Oct 18
Full
Oct 26
Last Quarter
Nov 3
New
Nov 9
First Quarter

Hourly Weather History & Observations

Time (CDT) Temp. Windchill Dew Point Humidity Pressure Visibility Wind Dir Wind Speed Gust Speed Precip Events Conditions
12:15 AM 32.9 °F 27.5 °F 32.0 °F 96% 29.84 in 10.0 mi SSW 5.8 mph - N/A   Clear
12:35 AM 34.2 °F 30.0 °F 32.4 °F 93% 29.84 in 10.0 mi SW 4.6 mph - N/A   Clear
12:55 AM 34.7 °F 30.6 °F 32.7 °F 92% 29.84 in 10.0 mi SW 4.6 mph - N/A   Clear
1:15 AM 34.2 °F 30.0 °F 32.2 °F 92% 29.84 in 10.0 mi SW 4.6 mph - N/A   Clear
1:35 AM 33.3 °F 30.2 °F 32.0 °F 95% 29.83 in 10.0 mi SW 3.5 mph - N/A   Clear
1:55 AM 32.7 °F 29.6 °F 31.6 °F 96% 29.83 in 10.0 mi SW 3.5 mph - N/A   Clear
2:15 AM 32.9 °F - 31.8 °F 96% 29.83 in 10.0 mi Calm Calm - N/A   Clear
2:35 AM 32.5 °F - 32.0 °F 98% 29.83 in 10.0 mi Calm Calm - N/A   Clear
2:55 AM 32.0 °F - 31.6 °F 99% 29.82 in 10.0 mi Calm Calm - N/A   Clear
3:15 AM 31.1 °F 27.7 °F 30.4 °F 97% 29.82 in 10.0 mi SSW 3.5 mph - N/A   Clear
3:35 AM 32.0 °F 28.7 °F 31.5 °F 98% 29.82 in 10.0 mi SW 3.5 mph - N/A   Clear
3:55 AM 32.0 °F 28.7 °F 31.6 °F 99% 29.81 in 10.0 mi SW 3.5 mph - N/A   Clear
4:15 AM 32.7 °F 28.3 °F 32.0 °F 97% 29.81 in 10.0 mi SW 4.6 mph - N/A   Clear
4:35 AM 35.2 °F 32.4 °F 32.9 °F 91% 29.81 in 10.0 mi WSW 3.5 mph - N/A   Clear
4:55 AM 35.2 °F 32.4 °F 32.9 °F 91% 29.81 in 10.0 mi WSW 3.5 mph - N/A   Clear
5:15 AM 35.6 °F 31.7 °F 33.3 °F 91% 29.81 in 10.0 mi West 4.6 mph - N/A   Clear
5:35 AM 35.6 °F 31.7 °F 33.4 °F 92% 29.81 in 10.0 mi SW 4.6 mph - N/A   Clear
5:55 AM 35.8 °F 31.9 °F 33.6 °F 92% 29.81 in 10.0 mi West 4.6 mph - N/A   Clear
6:15 AM 35.8 °F 33.0 °F 33.8 °F 92% 29.80 in 10.0 mi WSW 3.5 mph - N/A   Clear
6:35 AM 36.3 °F 33.7 °F 34.2 °F 92% 29.80 in 10.0 mi WSW 3.5 mph - N/A   Clear
6:55 AM 36.5 °F 32.7 °F 34.3 °F 92% 29.80 in 10.0 mi WSW 4.6 mph - N/A   Clear
7:15 AM 36.5 °F 33.9 °F 34.2 °F 91% 29.80 in 10.0 mi WSW 3.5 mph - N/A   Clear
7:35 AM 36.7 °F 34.1 °F 34.7 °F 93% 29.80 in 10.0 mi SW 3.5 mph - N/A   Mostly Cloudy
7:55 AM 36.9 °F 34.3 °F 34.9 °F 93% 29.80 in 10.0 mi SW 3.5 mph - N/A   Overcast
8:15 AM 37.9 °F 34.4 °F 35.2 °F 90% 29.80 in 10.0 mi SW 4.6 mph - N/A   Overcast
8:35 AM 38.3 °F 35.9 °F 35.8 °F 91% 29.80 in 10.0 mi West 3.5 mph - N/A   Mostly Cloudy
8:55 AM 39.2 °F 37.0 °F 36.3 °F 89% 29.80 in 10.0 mi SW 3.5 mph - N/A   Scattered Clouds
9:15 AM 40.1 °F 38.0 °F 36.7 °F 88% 29.79 in 10.0 mi SW 3.5 mph - N/A   Scattered Clouds
9:35 AM 40.8 °F 36.9 °F 37.0 °F 86% 29.79 in 10.0 mi SW 5.8 mph - N/A   Scattered Clouds
9:55 AM 41.4 °F 39.4 °F 37.6 °F 86% 29.80 in 10.0 mi SW 3.5 mph - N/A   Overcast
10:15 AM 41.9 °F 39.0 °F 38.3 °F 87% 29.80 in 10.0 mi SW 4.6 mph - N/A   Overcast
10:35 AM 42.4 °F 39.6 °F 39.2 °F 88% 29.80 in 10.0 mi SW 4.6 mph - N/A   Light Drizzle
10:55 AM 43.5 °F 41.9 °F 39.9 °F 87% 29.80 in 10.0 mi WSW 3.5 mph - N/A   Overcast
11:15 AM 44.2 °F - 40.5 °F 87% 29.79 in 10.0 mi Calm Calm - N/A   Overcast
11:35 AM 44.6 °F - 41.2 °F 88% 29.79 in 10.0 mi Calm Calm - N/A   Light Drizzle
11:55 AM 45.3 °F 44.0 °F 42.3 °F 89% 29.79 in 7.0 mi SW 3.5 mph - N/A   Light Drizzle
12:15 PM 45.3 °F - 42.1 °F 88% 29.79 in 7.0 mi Calm Calm - N/A   Light Drizzle
12:35 PM 45.7 °F - 42.8 °F 90% 29.79 in 7.0 mi Calm Calm - N/A   Light Drizzle
12:55 PM 46.4 °F - 43.2 °F 88% 29.79 in 7.0 mi Calm Calm - N/A   Light Drizzle
1:15 PM 46.9 °F - 44.1 °F 90% 29.79 in 10.0 mi West 3.5 mph - N/A   Overcast
1:35 PM 47.5 °F - 44.2 °F 89% 29.79 in 10.0 mi West 3.5 mph - N/A   Overcast
1:55 PM 46.8 °F - 44.2 °F 91% 29.79 in 7.0 mi WSW 3.5 mph - N/A Rain Light Rain
2:15 PM 46.6 °F - 43.3 °F 88% 29.78 in 7.0 mi Calm Calm - N/A   Light Drizzle
2:35 PM 46.6 °F - 43.2 °F 88% 29.78 in 10.0 mi Calm Calm - N/A   Drizzle
2:55 PM 46.9 °F - 45.0 °F 93% 29.78 in 7.0 mi Calm Calm - 0.01 in   Drizzle
3:15 PM 46.8 °F - 44.6 °F 92% 29.78 in 7.0 mi Calm Calm - 0.01 in Rain Light Rain
3:35 PM 46.8 °F - 44.4 °F 92% 29.77 in 10.0 mi Calm Calm - 0.02 in Rain Rain
3:55 PM 47.3 °F - 45.5 °F 93% 29.77 in 10.0 mi Calm Calm - 0.02 in   Light Drizzle
4:15 PM 47.3 °F - 45.9 °F 95% 29.77 in 7.0 mi Calm Calm - 0.01 in   Drizzle
4:35 PM 47.3 °F - 45.9 °F 95% 29.77 in 7.0 mi Calm Calm - 0.01 in   Drizzle
4:55 PM 46.8 °F - 45.9 °F 97% 29.77 in 7.0 mi Calm Calm - 0.02 in   Light Drizzle
5:15 PM 46.8 °F - 46.0 °F 97% 29.77 in 7.0 mi Calm Calm - N/A Rain Light Rain
5:35 PM 46.9 °F - 46.4 °F 98% 29.77 in 7.0 mi Calm Calm - 0.01 in Rain Light Rain
5:55 PM 46.8 °F - 46.4 °F 99% 29.77 in 5.0 mi Calm Calm - 0.01 in   Overcast
6:15 PM 46.6 °F - 46.4 °F 99% 29.78 in 5.0 mi Calm Calm - N/A   Overcast
6:35 PM 46.2 °F - 45.9 °F 99% 29.78 in 7.0 mi Calm Calm - N/A Rain Light Rain
6:55 PM 46.4 °F - 46.0 °F 99% 29.79 in 4.0 mi Calm Calm - 0.02 in Rain Rain
7:15 PM 46.6 °F - 45.9 °F 97% 29.79 in 7.0 mi NE 4.6 mph - 0.03 in Rain Light Rain
7:35 PM 45.7 °F 44.4 °F 44.6 °F 96% 29.80 in 7.0 mi North 3.5 mph - 0.05 in Rain Light Rain
7:55 PM 45.7 °F 42.0 °F 44.1 °F 94% 29.80 in 10.0 mi NNE 6.9 mph - 0.05 in Rain Rain
8:15 PM 45.7 °F 43.4 °F 43.9 °F 93% 29.80 in 10.0 mi NNE 4.6 mph - 0.01 in Rain Rain
8:35 PM 45.5 °F - 44.4 °F 96% 29.80 in 10.0 mi Calm Calm - 0.01 in   Light Drizzle
8:55 PM 45.5 °F 43.2 °F 44.4 °F 96% 29.81 in 10.0 mi North 4.6 mph - 0.01 in   Drizzle
9:15 PM 45.5 °F 43.2 °F 44.1 °F 95% 29.81 in 10.0 mi NNE 4.6 mph - N/A   Drizzle
9:35 PM 45.5 °F 41.3 °F 43.9 °F 94% 29.81 in 10.0 mi North 8.1 mph - N/A Rain Rain
9:55 PM 45.1 °F 42.0 °F 43.7 °F 95% 29.81 in 10.0 mi North 5.8 mph - 0.01 in   Drizzle
10:15 PM 44.6 °F 39.7 °F 42.4 °F 92% 29.82 in 10.0 mi North 9.2 mph - N/A   Drizzle
10:35 PM 43.9 °F 39.3 °F 42.3 °F 94% 29.82 in 10.0 mi NNW 8.1 mph - 0.01 in Rain Rain
10:55 PM 43.5 °F 38.3 °F 41.2 °F 91% 29.82 in 10.0 mi North 9.2 mph - 0.03 in Rain Light Rain
11:15 PM 42.6 °F 36.8 °F 39.9 °F 90% 29.82 in 10.0 mi North 10.4 mph - N/A   Drizzle
11:35 PM 41.9 °F 35.9 °F 39.6 °F 91% 29.82 in 10.0 mi North 10.4 mph 16.1 mph 0.01 in   Drizzle
11:55 PM 41.9 °F 38.2 °F 39.2 °F 90% 29.83 in 10.0 mi North 5.8 mph 10.4 mph 0.01 in   Drizzle